Regional Weather Roundup
Issued by NWS

Home | Current Version | Previous Version | Graphics & Text | Print | Product List | Glossary On
Versions: 1 2 3 4 5 6 7 8 9 10 11 12 13 14 15 16 17 18 19 20 21 22 23 24 25 26 27 28 29 30 31 32 33 34 35 36 37 38 39 40 41 42 43 44 45 46 47 48 49 50
000
ASUS43 KIND 270009
RWRIN

WEATHER ROUNDUP FOR INDIANA
NATIONAL WEATHER SERVICE INDIANAPOLIS IN
800 PM EDT WED APR 26 2017

NOTE: "FAIR" INDICATES FEW OR NO CLOUDS BELOW 12,000 FEET WITH NO
SIGNIFICANT WEATHER AND/OR OBSTRUCTIONS TO VISIBILITY.

* - STATION DOES NOT REPORT WEATHER SUCH AS PRECIPITATION OR FOG.

+ - STATION NOT QUALITY CONTROLLED BY THE NATIONAL WEATHER SERVICE.
    USE DATA WITH CAUTION...ESPECIALLY DEWPOINT AND RELATIVE
    HUMIDITY OBSERVATIONS.

INZ001>003-010>013-019-020-270100-
NORTHWEST INDIANA

CITY           SKY/WX    TMP DP  RH WIND       PRES   REMARKS
GARY /AIRPORT/ MOCLDY    75  50  41 SW12      29.47F
KNOX *+        CLOUDY    73  23  15 W13       29.50S
LA PORTE +     CLOUDY    73  53  48 SW9G17    29.50F
6HR MIN TEMP:  73; 6HR MAX TEMP:  81;

MICHIGAN CITY+ MOCLDY    72  54  53 S9        29.49F
MONTICELLO +   RAIN      70  56  62 CALM      29.49F
6HR MIN TEMP:  70; 6HR MAX TEMP:  83; 6HR PCP:  0.02;

RENSSELAER +   LGT RAIN  68  59  73 CALM      29.45F
VALPARAISO     CLOUDY    75  54  47 SW9       29.47F
6HR MIN TEMP:  75; 6HR MAX TEMP:  82;


$$

LMZ046-743>745-270100-
SOUTHERN LAKE MICHIGAN

STATION/POSITION TIME  TEMP    WIND        PRES    WAVE
                       AIR SEA DIR/SP/G            HT
                 (UTC) (F)     (DEG/KT/KT) (MB)    (FT)
BURNS HARBOR     2340   73     210/  8/ 16  998.6F
MICHIGAN CITY    2340   74     190/  8/ 10   N/A
5NW MICH CITY    0000   63 49                N/A     1

$$

INZ004-005-014>016-021>024-270100-
NORTH CENTRAL INDIANA

CITY           SKY/WX    TMP DP  RH WIND       PRES   REMARKS
ELKHART        PTCLDY    75  55  50 SW9       29.50S
GOSHEN         CLOUDY    75  54  47 W9        29.51R
6HR MIN TEMP:  75; 6HR MAX TEMP:  82;

LOGANSPORT +   RAIN      66  59  77 W9        29.56R
PERU/GRISSOM   TSTM      70  63  78 W32G39    29.54R
6HR MIN TEMP:  71; 6HR MAX TEMP:  83; 6HR PCP: TRACE;

ROCHESTER +    LGT RAIN  77  54  44 W12       29.53R
SOUTH BEND     CLOUDY    74  55  51 SW6       29.51S
6HR MIN TEMP:  73; 6HR MAX TEMP:  82;

WARSAW +       MOCLDY    77  52  41 W7        29.52R

$$

INZ006>009-017-018-025>027-270100-
NORTHEAST INDIANA

CITY           SKY/WX    TMP DP  RH WIND       PRES   REMARKS
ANGOLA *+      PTCLDY    79  72  78 SW3       29.51F
AUBURN +       CLOUDY    79  55  44 SW3       29.51F
FORT WAYNE     CLOUDY    77  60  55 S7        29.50F THUNDER
6HR MIN TEMP:  77; 6HR MAX TEMP:  85;

HUNTINGTON +   MOCLDY   N/A N/A N/A CALM      29.50F
KENDALLVILLE + MOCLDY    76  55  48 SW7       29.51F

$$

INZ028-029-035-036-043>045-051>053-270100-
WEST CENTRAL INDIANA

CITY           SKY/WX    TMP DP  RH WIND       PRES   REMARKS
CRAWFORDSVL +  CLOUDY    62  62 100 S7        29.52S
6HR MIN TEMP:  62; 6HR MAX TEMP:  86; 6HR PCP:  0.26;

GREENCASTLE +  CLOUDY    59  57  94 NE3       29.51F
LAFAYETTE      CLOUDY    66  61  84 SW3       29.46F
6HR MIN TEMP:  65; 6HR MAX TEMP:  82; 6HR PCP: TRACE;

TERRE HAUTE    CLOUDY    65  62  90 NE3       29.49F
6HR MIN TEMP:  61; 6HR MAX TEMP:  82; 6HR PCP:  1.02;


$$

INZ030>032-037>040-046>048-054>057-064-065-270100-
CENTRAL INDIANA

CITY           SKY/WX    TMP DP  RH WIND       PRES   REMARKS
CP ATTERBURY + CLOUDY    77  55  47 S13       29.53R
COLUMBUS       CLEAR     79  50  36 S13       29.53S
FRANKFORT +    CLOUDY    68  62  83 S3        29.54R
6HR MIN TEMP:  68; 6HR MAX TEMP:  88; 6HR PCP:  0.17;

GREENWOOD *+   PTCLDY    79  57  47 S13       29.53R
6HR MIN TEMP:  79; 6HR MAX TEMP:  85;

INDIANAPOLIS   CLOUDY    68  59  73 NW8       29.53R
6HR MIN TEMP:  69; 6HR MAX TEMP:  83;

-EAGLE CREEK   CLOUDY    65  58  78 N8        29.54R
6HR MIN TEMP:  65; 6HR MAX TEMP:  84; 6HR PCP: TRACE;

KOKOMO +       TSTM      66  61  82 SW24G35   29.58R
6HR MIN TEMP:  73; 6HR MAX TEMP:  85; 6HR PCP:  0.02;

MARION +       MOCLDY    77  59  53 S14       29.51F HAZE
MT COMFORT *+  PTCLDY    77  57  50 S17       29.53R
SHELBYVILLE    PTCLDY    81  57  43 S17       29.52S
6HR MIN TEMP:  81; 6HR MAX TEMP:  86;

ZIONSVILLE +   TSTM      60  59  95 S14G33    29.58R VSB 3/4
6HR MIN TEMP:  60; 6HR MAX TEMP:  83; 6HR PCP:  0.44;


$$

INZ033-034-041-042-049-050-058-059-270100-
EAST CENTRAL INDIANA

CITY           SKY/WX    TMP DP  RH WIND       PRES   REMARKS
MUNCIE         PTCLDY    81  58  45 S14G20    29.52S
6HR MIN TEMP:  81; 6HR MAX TEMP:  86;

RICHMOND +     CLOUDY    77  52  41 S17       29.59S

$$

INZ060-061-067>069-081>083-085>088-270100-
SOUTHWEST INDIANA

CITY           SKY/WX    TMP DP  RH WIND       PRES   REMARKS
EVANSVILLE     PTCLDY    79  57  46 S10       29.49F
6HR MIN TEMP:  79; 6HR MAX TEMP:  84;

HUNTINGBURG *+ CLOUDY    77  58  51 S8        29.51F
6HR MIN TEMP:  77; 6HR MAX TEMP:  82;

WASHINGTON +   CLOUDY    72  56  58 NW8       29.49S
6HR MIN TEMP:  72; 6HR MAX TEMP:  85;


$$

INZ062-063-066-070>080-084-089>092-270100-
SOUTH CENTRAL AND SOUTHEAST INDIANA

CITY           SKY/WX    TMP DP  RH WIND       PRES   REMARKS
BLOOMINGTON    PTCLDY    77  56  48 S9        29.51F
6HR MIN TEMP:  77; 6HR MAX TEMP:  85;

MADISON *+     CLOUDY    79  48  34 S10G17    29.59S

$$





USA.gov is the U.S. government's official web portal to all federal, state and local government web resources and services.